Regional Weather Roundup
Issued by NWS

Home | Current Version | Previous Version | Text Only | Print | Product List | Glossary On
Versions: 1 2 3 4 5 6 7 8 9 10 11 12 13 14 15 16 17 18 19 20 21 22 23 24 25 26 27 28 29 30 31 32 33 34 35 36 37 38 39 40 41 42 43 44 45 46 47 48 49 50
424
ASUS44 KLUB 260401
RWRTX
WEST TEXAS WEATHER ROUNDUP
NATIONAL WEATHER SERVICE LUBBOCK TX
1000 PM CST SAT FEB 25 2017

NOTE: "FAIR" INDICATES FEW OR NO CLOUDS BELOW 12,000 FEET WITH NO
SIGNIFICANT WEATHER AND/OR OBSTRUCTIONS TO VISIBILITY.

TXZ004-006>008-010-012-014-016-OKZ002-260500-
TEXAS PANHANDLE/OKLAHOMA PANHANDLE

CITY           SKY/WX    TMP DP  RH WIND       PRES   REMARKS
AMARILLO       CLEAR     39  21  48 S16       29.87R WCI  30
BORGER         CLEAR     42  22  44 S22G36    29.83R
CANADIAN       CLEAR     38  19  45 SE14G23   29.89R WCI  30
DALHART        PTCLDY    40   7  25 W12       29.81R WCI  33
DUMAS          PTCLDY    41  18  39 S17       29.82R
GUYMON         MOCLDY    39  19  44 S17       29.78F WCI  30
HEREFORD       CLEAR     44  23  44 S18G26    29.87S
PAMPA          CLEAR     38  21  51 S26       29.86R WCI  26
PERRYTON       CLOUDY    37  18  46 SE18      29.83S WCI  27
$$

TXZ026-029-035-045-048-260500-
SOUTHERN PANHANDLE/SOUTH PLAINS/ROLLING PLAINS

CITY           SKY/WX    TMP DP  RH WIND       PRES   REMARKS
CHILDRESS      CLEAR     39  21  48 SE13      29.95F WCI  31
SEMINOLE       CLOUDY    41  28  57 CALM      29.92S
LUBBOCK        CLEAR     42  24  49 SE15      29.92S
PLAINVIEW      CLEAR     35  21  57 S8        29.90R WCI  28
SNYDER         CLOUDY    41  27  57 SE7       29.96S
$$

TXZ052-054-060>062-072-078-127-140-154-169-260500-
PERMIAN BASIN/CONCHO VALLEY/BIG COUNTRY/EDWARDS PLATEAU

CITY           SKY/WX    TMP DP  RH WIND       PRES   REMARKS
ABILENE        CLEAR     41  28  60 SE14      29.98F
BIG SPRING     PTCLDY    47  28  47 SE15      29.96R
BROWNWOOD      PTCLDY    45  28  53 SE9       30.03S
JUNCTION       CLEAR     53  30  41 S12       30.02F
MIDLAND        CLEAR     50  28  42 S8        29.92S
ODESSA         CLEAR     54  26  34 S14       29.92S
SAN ANGELO     CLEAR     48  32  53 SE8       29.99R
SONORA         CLEAR     54  30  40 SE8       30.04S
SWEETWATER     CLOUDY    42  27  56 SE7       29.98S
WINK           CLEAR     52  26  36 SE12      29.89S
$$

TXZ055-058-074-075-080-082-260500-
FAR WEST/SOUTHWEST MOUNTAINS/TRANS PECOS

CITY           SKY/WX    TMP DP  RH WIND       PRES   REMARKS
ALPINE         CLEAR     51  12  21 S10       30.00F
DRYDEN           N/A     54  32  43 SE7       29.94F
EL PASO        PTCLDY    56   3  11 N8        29.92R
FORT STOCKTON  CLEAR     53  29  39 S18G31    29.92R
GUADALUPE PASS CLEAR     51   3  14 W30G36      N/A
MARFA          CLEAR     35   1  23 N3        29.99S
PECOS          CLEAR     53  26  34 SE6       29.89R
PRESIDIO       FAIR      59   3  10 N8        29.91S
$$

TXZ014-016-019-021>030-083-260500
TEXAS TECH WEST TEXAS MESONET/TEXAS PANHANDLE/NORTHERN SOUTH PLAINS

CITY           SKY/WX    TMP DP  RH WIND       PRES   REMARKS
ABERNATHY 5ENE   N/A     39  24  55 S14       29.92S WCI  31
AMARILLO 9NNE    N/A     40  21  46 S18       29.85R WCI  31
AMARILLO 7SSE    N/A     39  20  45 S15       29.88R WCI  31
AMHERST 1NE      N/A     40  22  50 S12       29.90S WCI  32
BOOTLEG 11WNW    N/A     31  17  55 S12       29.88S WCI  22
CANADIAN 6E      N/A     35  17  47 SE15      29.88S WCI  25
CAPROCK CYN SP   N/A     35  23  62 S10       29.93S WCI  27
CHILDRESS 2NNE   N/A     37  22  55 SE12      29.95F WCI  29
CLARENDON 2WSW   N/A     37  21  51 SE16      29.91S WCI  28
CLAUDE 12SW      N/A     39  20  46 SE13      29.90R WCI  32
DIMMITT 2NE      N/A     37  21  51 S14       29.89R WCI  29
FLOYDADA 2NNE    N/A     37  22  54 SE12      29.92S WCI  29
FRIONA 2NE       N/A     37  20  50 S14       29.88R WCI  29
GOODLETT 3W      N/A     37  23  56 E9        29.97F WCI  30
HART 3N          N/A     36  21  55 SE8       29.90R WCI  30
HEREFORD 2NW     N/A     40  19  43 S13       29.87R WCI  33
MCLEAN 1E        N/A     36  18  48 S17       29.89S WCI  25
MEMPHIS 1NE      N/A     38  22  51 SE9       29.95S WCI  32
MULESHOE 2SSW    N/A     42  22  45 S16       29.88S
OLTON 6S         N/A     35  20  56 S13       29.90S WCI  26
PALO DURO SP     N/A     41  20  42 S13       29.90R
PAMPA 2E         N/A     34  20  57 SE17      29.87S WCI  24
PLAINVIEW 1S     N/A     38  22  53 SE9       29.91R WCI  32
SILVERTON 7ESE   N/A     38  21  50 S13       29.92R WCI  30
TULIA 2ENE       N/A     38  23  55 S15       29.90R WCI  29
TURKEY 2WSW      N/A     39  24  55 S12       29.93R WCI  32
UMBARGER 3NNE    N/A     38  20  49 S17       29.87R WCI  28
$$

TXZ033>036-039>041-045>048-260500
TEXAS TECH WEST TEXAS MESONET/SOUTH PLAINS

CITY           SKY/WX    TMP DP  RH WIND       PRES   REMARKS
AIKEN 3WSW       N/A     38  22  54 SE13      29.92S WCI  30
ANDREWS 2NE      N/A     47  25  41 SE9       29.91S
ANTON 6SSW       N/A     36  21  54 SE8       29.92S WCI  29
BROWNFIELD 2S    N/A     40  25  55 SE9       29.92S WCI  34
DENVR CTY 7WNW   N/A     38  23  54 SE7       29.91R WCI  33
GAIL 2ESE        N/A     43  27  53 SE5       29.94S
LAMESA 2SE       N/A     44  28  52 E8        29.94S
LEVELLAND 4S     N/A     40  21  47 SE10      29.91S WCI  33
LUBBOCK 3WNW     N/A     44  23  44 SE10      29.93S
MORTON 1ENE      N/A     41  20  43 SE9       29.90S
ODONNELL 1N      N/A     44  26  48 SE7       29.93S
PLAINS 3N        N/A     39  23  52 SE12      29.91R WCI  32
RALLS 1SE        N/A     38  22  52 SE9       29.94S WCI  31
REESE CENTER     N/A     42  23  47 SE14      29.92S
SEAGRAVES 1SW    N/A     43  26  51 SE8       29.92R
SEMINOLE 2NNE    N/A     40  26  57 SE7       29.91S WCI  35
SLATON 2NE       N/A     39  23  53 SE7       29.94S WCI  34
SNYDER 3E        N/A     41  26  55 SE9       29.95S
SUNDOWN 8SW      N/A     35  22  59 SE9       29.91S WCI  27
TAHOKA 3NNE      N/A     40  24  52 SE8       29.93S
WOLFFORTH 6SSW   N/A     40  23  50 SE10      29.93S WCI  34
$$

TXZ031-032-036>038-042>044-260500-
TEXAS TECH WEST TEXAS MESONET/ROLLING PLAINS

CITY           SKY/WX    TMP DP  RH WIND       PRES   REMARKS
ASPERMONT 3NE    N/A     41  24  51 SE6       29.97S
FLUVANNA 3WNW    N/A     43  25  49 SE10      29.94S
GRAHAM 5SSW      N/A     43  25  49 SE10      29.94S
GUTHRIE 10WSW    N/A     36  22  58 SE3       29.96R
HASKELL 1NW      N/A     44  24  45 SE8       29.98F
JAYTON 1SSE      N/A     40  24  53 SE7       29.97R
KNOX CITY 3NW    N/A     43  23  44 SE10      29.98F
LK A HENRY 1NW   N/A     43  23  45 SE6       29.95S
NORTHFIELD 1S    N/A     37  24  59 E10       29.95S WCI  29
ODELL 4ENE       N/A     37  22  56 E10       30.01F WCI  30
PADUCAH 10SW     N/A     35  24  65 SE7       29.96S WCI  29
POST 1NE         N/A     42  24  49 SE6       29.95R
RRING SPRGS 3N   N/A     37  25  61 S9        29.94R WCI  30
SEYMOUR 3NW      N/A     37  28  70 E6        30.00F WCI  32
SPUR 1W          N/A     37  23  57 SE3       29.95S
WEINERT 2NNE     N/A     41  25  52 E8        29.99F
WHITE RVR 6NE    N/A     38  22  51 SE8       29.94S WCI  32
$$

TXZ052-054-060>062-072-078-127-140-154-169-260500-
TEXAS TECH WEST TEXAS MESONET/PERMIAN BASIN/
CONCHO VALLEY/BIG COUNTRY/EDWARDS PLATEAU

CITY           SKY/WX    TMP DP  RH WIND       PRES   REMARKS
COYANOSA 2N      N/A     55  27  34 SE16      29.90S
JUNCTION 1SSW    N/A     52  30  42 S10       30.03F
SAN ANGELO 7NW   N/A     49  29  47 SE12      29.99S
STRLNG CT 4WSW   N/A     47  28  47 E8        29.97S
ST LAWRNCE 5SW   N/A     48  28  44 SE13      29.94S
SWEETWATR 11SW   N/A     46  26  45 SE18      29.96S
WALL 1E          N/A     47  31  52 SE10      30.01R
$$

TXZ055-058-074-075-080-082-260500-
TEXAS TECH WEST TEXAS MESONET/FAR WEST/SOUTHWEST MOUNTAINS/TRANS PECOS

CITY           SKY/WX    TMP DP  RH WIND       PRES   REMARKS
PRSMN GAP BBNP   N/A     56  28  33 N18       29.93R
GUADLPE MTN NP   N/A     53   1  11 W17       29.95R
$$




USA.gov is the U.S. government's official web portal to all federal, state and local government web resources and services.